Погода в Кунграде

Погода в Кунграде : погода сейчас, прогноз погоды и архив. Всё, что Вы хотите узнать о погоде в Кунграде!

Хотите узнать прогноз погоды в Кунграде? Тогда Вам сюда: Погода в Кунграде

Поиск расширенной информации на нашем сайте:

Другие новости

Новости СМИ2

Главная страница сайта

Новости сайта

03.07.2017

Напоминаем, что на нашем специализированном сайте Метеоцентр.Азия вы можете получить высокодетализированные автоматические прогнозы погоды по пунктам России, СНГ и мира в авиационном формате (включающие направление и скорость ветра, видимость, явления погоды, количество и форму облачности, нижнюю и верхнюю границу облачности).


Погода в Кунграде - сегодня

Время (UTC), дата Ветер
(°,м/с) 
Видим.   Явления Облачность Т
(°С)
Тd
(°С)
f(%) Тe
(°С)
Pmin
(гПа)
dP
(гПа)
Po
(мм)
O2
(г/м3)
Тmin Tmax R s Состояние
почвы
21 19.05.18 тихо ()   20000 м    ясно 
+16.7 +11 69 +19  1018.1  758  286           
00 20.05.18 040 (СВ) 20000 м    ясно 
+14.6 +9.2 70 +15  1018.4  0.2  758  288           
03 20.05.18 080 (В) 20000 м    ясно 
+21.5 +12.9 58 +26  1019.1  0.4  759  281           
06 20.05.18 100 (В) 20000 м    ясно 
+30.2 +8 25 +30  1020.4  1.4  760  274  +13.8         
09 20.05.18 180 (Ю) 20000 м    6/6 1000 м 
[Cu hum]
+32 +5.6 19 +32  1017.4  -2.9  758  272           
12 20.05.18 190 (Ю) 20000 м    6/6 1000 м 
[Cu hum]
+32.2 +1.9 15 +32  1017.4  758  273           
15 20.05.18 150 (ЮВ) 20000 м    3/3 1000 м 
[Cu hum]
+30.2 +5 20 +30  1017.1  -0.4  758  274    +33.7       
18 20.05.18 тихо ()   20000 м    ясно 
+20.6 +5.8 38 +21  1017.7  0.4  758  283    +33.7       
21 20.05.18 тихо ()   20000 м    ясно 
+17.6 +6.8 49 +18  1017.5  -0.2  758  286           
00 21.05.18 тихо ()   20000 м    ясно 
+16.3 +8 58 +16  1017.3  -0.2  758  287           
03 21.05.18 070 (В) 20000 м    ясно 
+21.1 +9.3 47 +21  1018.6  1.3  758  282           
06 21.05.18 060 (СВ) 20000 м    ясно 
+30.9 +11.3 30 +34  1018.6  0.2  759  273  +13.6         
09 21.05.18 050 (СВ) 20000 м    ясно 
+33 +6.5 19 +33  1016.9  -1.6  757  271           
12 21.05.18 060 (СВ) 20000 м    ясно 
+32.7 +2.9 15 +33  1016.5  -0.4  757  272           
15 21.05.18 040 (СВ) 20000 м    ясно 
+30 +3 18 +30  1017.8  1.2  758  275    +34.2       
18 21.05.18 010 (С) 20000 м    ясно 
+19.2 -3 22 +20  1017.9  -0.1  758  286    +34.2       
21 21.05.18 090 (В) 20000 м    ясно 
+13.8 -1.2 35 +14  1017.3  -0.7  757  291           
00 22.05.18 300 (СЗ) 20000 м    ясно 
+9.2 -1.4 47 +9  1015.6  -1.9  756  295           
03 22.05.18 310 (СЗ) 20000 м    ясно 
+17.6 +5.5 45 +18  1017.9  2.6  758  286           
06 22.05.18 360 (С) 20000 м    ясно 
+30.5 +8.2 25 +31  1018.1  0.4  758  274  +8.4         
09 22.05.18 010 (С) 20000 м    ясно 
+33.7 +3.2 15 +34  1017.9  -0.1  758  271           
12 22.05.18 010 (С) 20000 м    ясно верхняя 
[Ci sp]
+33.7 +1.7 13 +34  1017.1  -0.8  758  271           
15 22.05.18 320 (СЗ) 20000 м    8/0 верхняя 
[Ci sp]
+27.3 +4 22 +27  1017.3  0.1  758  277    +34.7       
18 22.05.18 280 (З) 20000 м    6/0 верхняя 
[Ci sp]
+21.2 +4.6 34 +21  1017.4  -0.1  758  283    +34.7       
21 22.05.18 040 (СВ) 20000 м    ясно 
+20.3 +11 55 +23  1018.7  1.3  759  283           
Время (UTC), дата Ветер
(°,м/с) 
Видим.   Явления Облачность Т
(°С)
Тd
(°С)
f(%) Тe
(°С)
Pmin
(гПа)
dP
(гПа)
Po
(мм)
O2
(г/м3)
Тmin Tmax R s Состояние
почвы

Для получения пояснительной информации подведите курсор к названию столбца.

ПОГОДА в Кунграде - архив

Всё, что Вы хотите узнать о погоде в Кунграде - удобно и подробно!

Выберите нужную дату (начиная с 1 января 2015* года) и нажмите кнопку "Найти".
Будут отображены архивные сводки погоды по пункту Кунград, начиная с указанной даты.


Отображать данные в формате CSV (для использования в таблицах Excel)


Внимание! Наш архив погоды предназначен исключительно для личного некоммерческого использования в познавательных целях. Если Вам необходимы официальные справки о состоянии погоды (для производственных, юридических, коммерческих и т.п. целей), обращайтесь в органы Росгидромета.

*Примечание: данная дата относится к архиву по метеостанциям СССР (Россия, СНГ, Балтия).
Архив по метеостанциям Зарубежной Европы и Азии (кроме Китая) хранится 10 дней, по другим регионам земного шара (Китай, Африка, Америка, Австралия, Океания) - 1 день.

Кунград - район местоположения метеостанции


Название, широта, долгота, высота метеостанции:
Кунград 43.1°ш. 58.9°д. 64 м над ур. моря [Узбекистан]

Дополнительная информация

В oтличие oт бoльшинства пoгoдных сайтoв мы публикуем пoдрoбную метеoинфoрмацию в детальнoм прoфессиoнальнoм фoрмате.

Характеристики температуры и влажнoсти вoздуха измеряются на высoте 2 м в тени вдали oт зданий и деревьев.
Скoрoсть ветра измеряется на высoте 10 м (на урoвне рoста челoвека скoрoсть ветра ниже в 1.5-2 раза). Если метеoстанция нахoдится в гoрoде или в лесу, тo скoрoсть ветра занижена на 2-4 м/с пo сравнению с oткрытым местoм. Скoрoсть ветра над акватoриями крупных рек и oзёр, а также на вершинах хoлмoв на 2-5 м/с выше, чем в oбычных услoвиях.
Атмoсфернoе давление в разных тoчках местнoсти мoжет значительнo oтличаться oт давления на метеoстанции, в зависимoсти oт услoвий рельефа (при пoдъёме на 10 м давление пoнижается примернo на 1 мм рт.ст.).